www.pogodaiklimat.ru

Погода и климат >> Архив погоды >> Россия >> Приморский край >> Находка


АРХИВ ПОГОДЫ в Находке

Время (UTC), дата Ветер
(напр.,м/с)
 
Видим.   Явления Облачность Т
(С)
Тd
(С)
f
(%)
Тe
(С)
Тes
(С)
Комфортность P
(гПа)
Po
(гПа)
Тmin
(С)
Tmax
(С)
R
(мм)
R24
(мм)
S
(см)
03 20.05 Ю 7-13
{17}
2000 м дымка {ливн. осадки} 10/10 600 м
[Sc]
+12.6 +12.5 99 +10 +10 по сезону 996.5 990.0
06 20.05 Ю 1
{16}
4000 м дымка {ливн. осадки, туман} 10/10 600 м
[St]
+12.5 +12.4 99 +12 +12 по сезону 995.7 989.2
09 20.05 ЮВ 3 4000 м дымка {гроза, ливн. осадки} 10/10 600 м
[Cb cap]
+12.0 +12.0 100 +10 +10 по сезону 995.9 989.3 +14.8 10
12 20.05 Ю 1 20 км {гроза, ливн. осадки} 4/4 600 м
[Sc]
+10.6 +10.5 99 +10 +10 по сезону 996.2 989.7
15 20.05 З 1 20 км ясно +9.9 +9.6 98 +9 +9 по сезону 997.4 990.7
18 20.05 СВ 1 2000 м дымка 10 баллов +8.6 +8.5 99 +8 +8 по сезону 997.4 990.7
21 20.05 В 1 200 м туман ?/? +7.8 +7.8 100 +7 +7 по сезону 998.7 992.0 +7.5
00 21.05 В 1 10 км в посл. час туман 3/0
[Ci fib]
+11.7 +11.5 99 +11 +24 опасность
простуды
996.7 990.2
03 21.05 ЮЗ 4 50 км 3/0
[Ci fib]
+16.5 +10.6 68 +16 +26 тепло 997.2 990.7
06 21.05 Ю 3 50 км 4 балла +17.4 +9.6 60 +17 +24 тепло 995.8 989.3
09 21.05 З 3 20 км 8/3 600 м
[Cb cap Ac trans]
+14.3 +6.9 61 +13 +14 тепло 997.3 990.7 +18.5
12 21.05 СЗ 1 20 км 4/0
[Cc]
+10.7 +8.2 85 +10 +10 по сезону 997.8 991.2
15 21.05 штиль 0 20 км ясно +10.0 +8.9 93 +9 +9 по сезону 1000.0 993.3
18 21.05 штиль 0 20 км 2 балла +8.6 +8.2 97 +8 +8 по сезону 998.7 992.0
21 21.05 Ю 1 20 км 10/0
[Cs]
+8.9 +8.3 96 +8 +9 по сезону 997.9 991.3 +8.5
00 22.05 В 1 50 км 10/4 600 м
[Cb cap Cs]
+14.3 +9.4 72 +15 +21 тепло 998.2 991.7
03 22.05 Ю 4 50 км 4/3 600 м
[Cu hum Cc]
+18.0 +5.6 44 +18 +26 тепло 998.5 992.0
06 22.05 З 3 50 км 10 баллов +18.2 +6.1 45 +18 +18 тепло 998.5 992.0
09 22.05 З 3 50 км 8/0
[Ac trans Cc]
+16.0 +6.4 53 +16 +16 тепло 999.9 993.3 +19.7
12 22.05 З 3 20 км 2 балла +13.9 +6.7 62 +13 +13 тепло 1002.6 996.0
15 22.05 З 2 20 км 10/0
[Ac und]
+14.0 +6.1 59 +14 +14 тепло 1003.9 997.3
18 22.05 З 2 20 км 10 баллов +11.8 +7.7 76 +11 +11 тепло 1005.4 998.7
21 22.05 В 1 50 км 10/10 600 м
[Sc]
+10.1 +8.4 89 +10 +10 тепло 1004.8 998.2 +10.1
00 23.05 СВ 1 50 км 10/0
[Ac lent Cc]
+15.6 +9.6 67 +16 +25 тепло 1004.3 997.8
03 23.05 Ю 4 50 км 3/0
[Ac cast]
+19.9 +8.6 48 +21 +31 комфорт 1005.2 998.7
06 23.05 ЮЗ 3 50 км 1 балл +18.9 +8.8 52 +20 +29 тепло 1005.2 998.7
09 23.05 Ю 3 50 км 1/1 600 м
[Cu hum]
+16.3 +8.3 59 +16 +17 тепло 1006.6 1000.0 +20.3
12 23.05 З 1 20 км 3/0
[Ci fib]
+12.8 +8.7 76 +13 +13 тепло 1007.3 1000.7
15 23.05 штиль 0 20 км ясно +10.6 +8.4 86 +10 +10 по сезону 1009.4 1002.7
18 23.05 СЗ 1 20 км ясно +10.7 +7.9 83 +10 +10 тепло 1009.4 1002.7
21 23.05 СВ 1 50 км 10/0
[Ci]
+9.5 +8.5 93 +9 +10 по сезону 1009.6 1002.9 +9.0
00 24.05 В 1 50 км ясно +16.6 +9.3 62 +18 +31 опасность
простуды
1009.8 1003.3
03 24.05 Ю 4 50 км 3/0
[Ci fib]
+23.8 +3.1 26 +23 +34 комфорт 1010.5 1004.0
06 24.05 Ю 3 50 км 4 балла +20.8 +4.8 35 +22 +28 комфорт 1009.2 1002.7
09 24.05 Ю 2 50 км 8/0
[Ac lent]
+17.0 +8.2 56 +17 +18 тепло 1009.3 1002.7 +24.8
12 24.05 СЗ 1 20 км 3/0
[Ac cast]
+14.4 +9.8 74 +15 +15 тепло 1008.5 1002.0
15 24.05 СЗ 1 20 км ясно +13.1 +9.0 76 +13 +13 тепло 1009.4 1002.7
18 24.05 В 1 20 км ясно +10.1 +8.5 90 +10 +10 тепло 1009.5 1002.7
21 24.05 штиль 0 20 км 8/0
[Ci fib]
+10.6 +8.3 86 +10 +11 по сезону 1008.1 1001.4 +9.6
00 25.05 ЮВ 1 50 км 3/0
[Ci fib]
+17.1 +9.1 59 +18 +31 опасность
простуды
1008.2 1001.7
03 25.05 В 1 50 км 10 баллов +23.9 +9.8 41 +25 +25 комфорт 1009.1 1002.7
06 25.05 В 1 50 км 4 балла +28.4 +9.6 31 +28 +37 жарко 1009.0 1002.7
09 25.05 СЗ 1 50 км 10/0
[Cs]
+24.3 +8.3 36 +25 +25 комфорт 1009.1 1002.7 +29.4
12 25.05 С 1 20 км 3/0
[Ci fib]
+18.9 +12.4 66 +21 +21 комфорт 1009.3 1002.8
15 25.05 ЮВ 1 20 км 2 балла +15.7 +12.3 80 +16 +16 тепло 1010.6 1004.0
18 25.05 В 1 20 км ясно +14.4 +11.2 81 +15 +15 тепло 1009.4 1002.7
21 25.05 ЮВ 1 50 км 1/0
[Ci fib]
+14.1 +11.4 84 +14 +16 тепло 1009.2 1002.6 +12.9
00 26.05 Ю 2 50 км ясно +22.3 +11.6 51 +25 +36 комфорт 1009.2 1002.9
03 26.05 Ю 2 50 км ясно +25.7 +12.9 45 +28 +47 жарко 1010.4 1004.0
06 26.05 ЮЗ 5 50 км 1 балл +23.9 +10.5 43 +25 +31 комфорт 1009.1 1002.7
09 26.05 СВ 1 50 км 6/0
[Cs]
+19.0 +10.8 59 +21 +22 комфорт 1010.6 1004.0 +30.5
12 26.05 С 2 20 км 1/0
[Ci fib]
+15.9 +9.9 68 +16 +16 тепло 1010.7 1004.2
15 26.05 СЗ 1 20 км ясно +16.3 +7.8 57 +17 +17 тепло 1010.6 1004.0
18 26.05 С 1 20 км 7 баллов +13.7 +10.1 79 +14 +14 тепло 1009.4 1002.7
21 26.05 штиль 0 50 км 10/0
[Cs]
+15.0 +10.2 73 +15 +16 тепло 1007.9 1001.3 +13.5
00 27.05 ЮВ 4 20 км 10/0
[Ci]
+16.7 +10.6 67 +16 +22 тепло 1007.3 1000.9

 

Местоположение метеостанции Находка (Приморский край, Россия): широта 42.80 долгота 132.80 высота над уровнем моря 56 м.

В архиве по умолчанию представлена погода в Находке за последнюю неделю. Архивные данные за месяц целиком и за предыдущие месяцы, начиная с января 2011 года, Вы можете получить, выбрав интересующий диапазон дат из раскрывающегося списка и нажав кнопку "Ввод!".


*Определитесь, кто Вы:
робот инопланетянин человек

Внимание! Время в таблицах - всемирное. Для получения местного времени необходимо прибавить поправку, которая равна 10 ч.

Смотрите также архив погоды в соседних городах и на ближайших метеорологических станциях:

Погода в Партизанске (Приморский край, Россия) (42 км)
Погода на Мысе Назимова (Приморский край, Россия) (78 км)
Погода в Многоудобном (Приморский край, Россия) (79 км)
Погода в Владивостоке (Приморский край, Россия) (81 км)
Погода в Преображении (Приморский край, Россия) (90 км)
Погода в Лазо (Приморский край, Россия) (105 км)
Погода в Барабаше (Приморский край, Россия) (122 км)
Погода в Анучино (Приморский край, Россия) (131 км)
Погода в Гамове (Приморский край, Россия) (132 км)
Погода в Тимирязевском (Приморский край, Россия) (140 км)

Пояснения к столбцам:

Ветер - указаны скорость ветра в м/с - средняя за 10 мин, порывы в срок и между сроками (в фигурных скобках) и направление, откуда дует ветер: С - северный, СВ - северо-восточный, В - восточный, ЮВ - юго-восточный, Ю - южный, ЮЗ - юго-западный, З - западный, СЗ - северо-западный.
Видимость - горизонтальная дальность видимости в метрах или километрах. При видимости от 1 до 10 км при отсутствии осадков обычно наблюдается дымка, при ухудшении видимости до 1 км и менее - туман. В сухую погоду видимость может ухудшаться дымом, пылью или мглою.
Явления - указаны атмосферные явления, наблюдавшиеся в срок или в последний час перед сроком; фигурными скобками обозначены явления, наблюдавшиеся между сроками (за 1-3 часа до срока); квадратными скобками обозначены град или гололедные отложения с указанием их диаметра в мм.
Облачность - указаны через наклонную черту общая и нижняя облачность в баллах и высота нижней границы облаков в метрах; квадратными скобками обозначены формы облаков: Ci - перистые, Cs - перисто-слоистые, Cc - перисто-кучевые, Ac - высококучевые, As - высокослоистые, Sc - слоисто-кучевые, Ns - слоисто-дождевые, Cu - кучевые, Cb - кучево-дождевые. Подробнее классификацию облаков см. в Атласе облаков (PDF).
T - Температура воздуха - температура, измеренная на высоте 2 м над землей.
Td - Температура точки росы - температура, при понижении до которой содержащийся в воздухе водяной пар достигнет насыщения.
f - Относительная влажность воздуха - влажноcть воздуха, измеренная на высоте 2 м над землей.
Te - Эффективная температура - температура, которую ощущает одетый по сезону человек в тени. Характеристика душности погоды. При расчете учитывается влияние влажности воздуха и скорости ветра на теплоощущения человека.
Tes - Эффективная температура на солнце - температура, которую ощущает человек, с поправкой на солнечный нагрев. Характеристика знойности погоды. Зависит от высоты солнца над горизонтом, облачности и скорости ветра. Ночью, в пасмурную погоду, а также при ветре 12 м/с и более поправка равна нулю.
P - Атмосферное давление - приведенное к уровню моря атмосферное давление.
Po - Атмосферное давление - измеренное на уровне метеостанции атмосферное давление.
Tmin - Минимальная температура - минимум температуры воздуха на высоте 2 м над землей.
Tmax - Максимальная температура - максимум температуры воздуха на высоте 2 м над землей.
R - Количество осадков - Количество выпавших осадков за период времени, мм. При наведении курсора мыши на число - период времени, за который выпало указанное количество осадков.
R24 - Количество осадков - Количество выпавших осадков за 24 часа, мм.
S - Снежный покров - Высота снежного покрова, см. При наведении курсора мыши на число - состояние снежного покрова и степень покрытия местности в баллах.